* Astronomy

Members Login
Username 
 
Password 
    Remember Me  
Post Info TOPIC: Asteroid 2011 DR


L

Posts: 131433
Date:
Asteroid 2011 DR
Permalink  
 


Orbital elements:
2011 DR Earth MOID = 0.0374 AU
Epoch 2011 Feb. 8.0 TT = JDT 2455600.5 MPC
M 344.33969 (2000.0) P Q
n 0.76663457 Peri. 6.97215 -0.93333340 -0.34858724
a 1.1823438 Node 152.14315 +0.31987469 -0.91605628
e 0.1324488 Incl. 10.59102 +0.16299983 -0.19831245
P 1.29 H 25.7 G 0.15 U 7
MPEC 2011 - D30

__________________
Page 1 of 1  sorted by
 
Quick Reply

Please log in to post quick replies.



Create your own FREE Forum
Report Abuse
Powered by ActiveBoard